sat.trackr.live / text

‹ back to catalog

STARLINK-3158

NORAD 49432 · 2021-104AA

PAYLOAD ACTIVE UNKNOWN

§ Identity

Operator
Country
US
Launch date
2021-11-13
Launch site
AFETR
Launch vehicle
Mass (kg)
RCS (m²)

Purposes: comms

External: N2YO · Heavens-Above · Gunter

§ Orbital elements

Epoch: 2026-09-20T00:57:57.201696Z

Period
94.01 min
Inclination
53.1599°
Eccentricity
0.0001115
Mean motion
15.31703933 rev/d
Perigee alt
470.0 km
Apogee alt
471.5 km
Semi-major
6,848.9 km
B*
2.1493e-5
RAAN
53.9970°
Arg perigee
80.8477°
Mean anomaly
279.2651°
Rev number
26,828

§ Raw data

STARLINK-31581 49432U 21104AA  26263.04024539  .00000302  00000+0  21493-4 0  99932 49432  53.1599  53.9970 0001115  80.8477 279.2651 15.31703933268284

JSON: /api/v1/satellites/49432 · /tle

For live sub-satellite position, see the globe view (requires WebGL).

§ Visibility from observer

Set your observer location to see the next 7 days of passes ≥ 10°. The values pass through the URL so the page stays shareable.

No JS? Fill the form by hand. The geolocation button needs JavaScript.